FW8660 Weather Reports


Display with metric or nautical units.
time (UTC)temp
F
wind
direction
speed
MPH
gust
MPH
rain 1hr
in
rain 24hr
in
rain mn
in
humidity
%
barometer
mb
20260507193032 59 117 7.0 12.0 0.00 0.05 0.05 83 1012.8
20260507191534 59 98 7.0 11.0 0.00 0.05 0.05 82 1012.5
20260507190031 59 76 7.0 12.0 0.00 0.05 0.05 82 1012.2
20260507184528 59 97 5.0 12.0 0.00 0.05 0.05 82 1012.1
20260507183038 60 94 7.0 12.0 0.00 0.05 0.05 82 1011.8
20260507181530 60 107 7.0 11.0 0.00 0.05 0.05 81 1011.8
20260507180032 61 73 4.0 9.0 0.00 0.05 0.05 80 1011.7
20260507174535 61 94 8.0 12.0 0.00 0.05 0.05 79 1012.0
20260507173034 61 188 2.0 5.0 0.00 0.05 0.05 78 1012.0
20260507171531 62 107 5.0 14.0 0.00 0.05 0.05 77 1011.6
20260507170030 63 146 2.0 7.0 0.00 0.05 0.05 76 1011.5
20260507164531 64 248 2.0 4.0 0.00 0.05 0.05 76 1011.5
20260507163031 64 310 4.0 10.0 0.00 0.05 0.05 78 1011.3
20260507161529 63 263 4.0 9.0 0.00 0.05 0.05 80 1011.2
20260507160035 63 321 5.0 10.0 0.00 0.05 0.05 81 1011.0
20260507154528 63 266 6.0 9.0 0.00 0.05 0.05 83 1011.2
20260507153031 62 298 5.0 9.0 0.00 0.05 0.05 84 1011.3
20260507151531 62 294 4.0 7.0 0.00 0.05 0.05 84 1011.4
20260507150030 63 268 0.0 1.0 0.00 0.05 0.05 84 1011.3
20260507144528 62 0 0.0 3.0 0.02 0.05 0.05 83 1011.2
20260507143050 62 0 1.0 3.0 0.03 0.05 0.05 84 1011.0
20260507141547 61 0 0.0 4.0 0.04 0.05 0.05 83 1010.7
20260507140032 60 180 4.0 10.0 0.03 0.03 0.03 84 1011.0
20260507134528 61 140 8.0 14.0 0.03 0.03 0.03 84 1011.1
20260507133028 62 150 5.0 10.0 0.01 0.01 0.01 83 1011.4
20260507131527 62 150 4.0 9.0 0.00 0.00 0.00 80 1011.4
20260507130040 66 150 5.0 11.0 0.00 0.00 0.00 73 1011.5
20260507124530 67 126 7.0 12.0 0.00 0.00 0.00 70 1011.4
20260507123030 67 94 7.0 15.0 0.00 0.00 0.00 69 1011.5
20260507121530 67 145 6.0 13.0 0.00 0.00 0.00 69 1011.6
20260507120030 67 101 6.0 14.0 0.00 0.00 0.00 69 1011.8
20260507114531 67 64 6.0 13.0 0.00 0.00 0.00 70 1011.8
20260507113030 66 138 8.0 14.0 0.00 0.00 0.00 71 1011.7
20260507111530 66 127 9.0 16.0 0.00 0.00 0.00 72 1011.9
20260507110030 66 105 7.0 16.0 0.00 0.00 0.00 72 1012.0
20260507104527 67 64 10.0 17.0 0.00 0.00 0.00 70 1012.1
20260507103032 66 93 12.0 17.0 0.00 0.00 0.00 72 1012.1
20260507101528 66 81 11.0 18.0 0.00 0.00 0.00 72 1012.1
20260507100036 66 117 10.0 19.0 0.00 0.00 0.00 72 1012.0
20260507094528 66 87 11.0 18.0 0.00 0.00 0.00 71 1012.1
20260507093028 66 100 10.0 18.0 0.00 0.00 0.00 71 1012.2
20260507091535 65 76 10.0 19.0 0.00 0.00 0.00 73 1012.1
20260507090028 65 58 10.0 14.0 0.00 0.00 0.00 73 1012.1
20260507084530 65 92 10.0 15.0 0.00 0.00 0.00 75 1012.1
20260507083028 64 61 8.0 14.0 0.00 0.00 0.00 76 1012.2
20260507081530 64 78 9.0 15.0 0.00 0.00 0.00 74 1012.2
20260507080028 64 78 6.0 13.0 0.00 0.00 0.00 74 1012.2
20260507074528 63 43 5.0 10.0 0.00 0.00 0.00 76 1012.2
20260507073031 63 98 4.0 9.0 0.00 0.00 0.00 76 1012.2
20260507071533 62 35 3.0 8.0 0.00 0.00 0.00 80 1012.0
20260507070033 60 35 1.0 6.0 0.00 0.00 0.00 84 1011.8
20260507064550 59 94 1.0 4.0 0.00 0.00 0.00 85 1011.7
20260507063034 59 86 2.0 3.0 0.00 0.00 0.00 85 1011.6
20260507061530 57 113 1.0 2.0 0.00 0.00 0.00 85 1011.7
20260507060030 57 113 1.0 3.0 0.00 0.00 0.00 85 1011.6
20260507054527 56 113 1.0 3.0 0.00 0.00 0.00 84 1011.6
20260507053030 56 0 0.0 3.0 0.00 0.00 0.00 84 1011.6
20260507051528 56 0 0.0 1.0 0.00 0.00 0.00 83 1011.6
20260507050039 57 113 1.0 3.0 0.00 0.00 0.00 83 1011.5
20260507044529 57 113 1.0 2.0 0.00 0.00 0.00 83 1011.4
20260507043030 57 113 1.0 3.0 0.00 0.00 0.00 83 1011.4
20260507041529 57 113 2.0 3.0 0.00 0.00 0.00 82 1011.3
20260507040030 57 114 1.0 3.0 0.00 0.00 0.00 82 1011.3
20260507034530 58 0 0.0 2.0 0.00 0.00 0.00 82 1011.3
20260507033028 59 63 1.0 3.0 0.00 0.00 0.00 82 1011.3
20260507031533 59 63 2.0 4.0 0.00 0.00 0.00 82 1011.3
20260507030035 59 66 2.0 5.0 0.00 0.00 0.00 82 1011.2
20260507024530 59 70 3.0 4.0 0.00 0.00 0.00 82 1011.4
20260507023030 59 65 3.0 6.0 0.00 0.00 0.00 82 1011.4
20260507021527 60 87 3.0 6.0 0.00 0.00 0.00 82 1011.4
20260507020029 60 87 3.0 6.0 0.00 0.00 0.00 82 1011.6
20260507014529 60 95 4.0 6.0 0.00 0.00 0.00 82 1011.7
20260507013028 60 110 3.0 6.0 0.00 0.00 0.00 82 1012.0
20260507011531 60 101 3.0 6.0 0.00 0.00 0.00 82 1011.8
20260507010043 60 103 3.0 6.0 0.00 0.00 0.00 83 1011.7
20260507004533 60 100 3.0 6.0 0.00 0.00 0.00 83 1011.8
20260507003029 60 82 3.0 7.0 0.00 0.00 0.00 83 1011.8
20260507001531 60 93 3.0 6.0 0.00 0.00 0.00 84 1011.9
20260507000028 60 71 3.0 5.0 0.00 0.00 0.00 84 1012.1
20260506234531 61 95 3.0 7.0 0.00 0.00 0.00 84 1012.2
20260506233030 61 73 3.0 6.0 0.00 0.00 0.00 84 1012.3
20260506231531 61 82 3.0 5.0 0.00 0.00 0.00 84 1012.4
20260506230039 61 74 3.0 7.0 0.00 0.00 0.00 84 1012.3
20260506224536 61 90 2.0 5.0 0.00 0.00 0.00 84 1012.3
20260506223030 61 70 3.0 5.0 0.00 0.00 0.00 84 1012.3
20260506221528 61 62 2.0 5.0 0.00 0.00 0.00 84 1012.4
20260506220035 61 60 1.0 3.0 0.00 0.00 0.00 83 1012.3
20260506214529 61 110 2.0 4.0 0.00 0.00 0.00 83 1012.5
20260506213030 62 110 2.0 8.0 0.00 0.00 0.00 83 1012.7
20260506211533 62 80 3.0 5.0 0.00 0.00 0.00 83 1012.7
20260506210031 62 65 2.0 5.0 0.00 0.00 0.00 82 1012.7
20260506204534 62 64 3.0 5.0 0.00 0.00 0.00 82 1012.6
20260506203031 62 83 3.0 7.0 0.00 0.00 0.00 81 1012.5
20260506201537 62 83 3.0 8.0 0.00 0.00 0.00 81 1012.3
20260506200030 63 91 4.0 7.0 0.00 0.00 0.00 80 1012.0
20260506194528 63 80 5.0 12.0 0.00 0.00 0.00 80 1011.8